Regional Weather Roundup
Issued by NWS

Home | Current Version | Previous Version | Text Only | Print | Product List | Glossary On
Versions: 1 2 3 4 5 6 7 8 9 10 11 12 13 14 15 16 17 18 19 20 21 22 23 24 25 26 27 28 29 30 31 32 33 34 35 36 37 38 39 40 41 42 43 44 45 46 47 48 49 50
000
ASUS43 KMPX 240401
RWRMN
WEATHER ROUNDUP FOR MINNESOTA
NATIONAL WEATHER SERVICE TWIN CITIES/CHANHASSEN MN
1100 PM CDT SAT MAY 23 2015


NOTE: "FAIR" INDICATES FEW OR NO CLOUDS BELOW 12,000 FEET WITH NO
SIGNIFICANT WEATHER AND/OR OBSTRUCTIONS TO VISIBILITY. N/A MEANS
CURRENT SKY AND/OR WEATHER CONDITIONS ARE NOT AVAILABLE.

MNZ060>063-068>070-240500-
   Twin Cities Metro

CITY           SKY/WX    TMP DP  RH WIND       PRES   REMARKS
TWIN CITIES    MOCLDY    63  46  54 E7        30.14R
ST PAUL        MOCLDY    62  47  57 E3        30.15R
CRYSTAL        MOCLDY    62  48  60 E3        30.14R
BLAINE         CLOUDY    61  54  77 CALM      30.15R
LAKEVILLE      CLOUDY    59  46  63 NE3       30.14S
EDEN PRAIRIE   CLOUDY    62  47  57 NE3       30.13R
SOUTH ST PAUL  MOCLDY    62  46  56 CALM      30.14S
LAKE ELMO      MOCLDY    59  50  72 CALM      30.16R
$$
MNZ001>005-007-008-013>017-022>024-027-028-240500-
   Northwest Minnesota

CITY           SKY/WX    TMP DP  RH WIND       PRES   REMARKS
BEMIDJI        CLEAR     58  43  57 S3        30.15R
HALLOCK        PTCLDY    61  46  59 SW8       30.09R
ROSEAU         CLEAR     63  46  55 SW6       30.09F
WARROAD        FAIR      64  46  52 SW6       30.10S
THIEF RVR FALL MOCLDY    59  43  55 SW6       30.12S
CROOKSTON      FAIR      57  45  62 S8        30.12S
FOSSTON        PTCLDY    54  43  66 CALM      30.15S
DETROIT LAKES  CLEAR     59  48  67 CALM      30.15F
MOORHEAD       FAIR      61  48  63 SE3       30.13S
PARK RAPIDS    CLOUDY    59  44  57 CALM      30.15S
MAHNOMEN       FAIR      58  45  61 S3        30.14S
$$
MNZ006-009>011-018-025>026-240500-
   North Central Minnesota

CITY           SKY/WX    TMP DP  RH WIND       PRES   REMARKS
BAUDETTE       CLEAR     58  45  62 S5        30.09S
FLAG ISLAND    CLEAR     66  37  34 SW9       30.07R
INTL FALLS     CLEAR     51  42  71 W3        30.09S
WASKISH        CLEAR     61  45  55 CALM      30.12R
BIG FORK       CLEAR     55  45  67 SW5       30.14S
LONGVILLE      CLEAR     50  46  87 CALM      30.15F
GRAND RAPIDS   CLEAR     50  41  71 S5        30.16S
CRANE LAKE     CLEAR     48  43  81 CALM      30.12S
ORR            CLEAR     61  34  36 CALM      30.10R
COOK           CLEAR     61  43  51 SW3       30.14R
WALKER         FAIR      54  43  67 CALM      30.15S
$$
MNZ012-019>021-037-240500-
   Northeast Minnesota

CITY           SKY/WX    TMP DP  RH WIND       PRES   REMARKS
DULUTH         CLEAR     59  42  53 W5        30.16R
ELY            CLEAR     61  43  51 SW7       30.13R
HIBBING        CLEAR     49  41  74 CALM      30.14S
EVELETH        CLEAR     57  43  58 SW3       30.15S
DULUTH HARBOR  CLEAR     61  48  63 SW6       30.15S
TWO HARBORS    CLEAR     61  48  63 W6        30.14R
GRAND MARAIS     N/A     45  38  76 W6        30.09S
G MARAIS ARPRT CLEAR     54  37  54 W3        30.13S
$$
MNZ029>031-032-039>041-046>048-054>057-064-240500-
   West Central Minnesota

CITY           SKY/WX    TMP DP  RH WIND       PRES   REMARKS
FERGUS FALLS   CLOUDY    61  46  59 CALM      30.14S
WHEATON        CLOUDY    61  46  59 E7        30.13F
MORRIS         CLOUDY    63  48  59 E8        30.12S
ALEXANDRIA     CLOUDY    61  46  57 E8        30.15S
ELBOW LAKE     CLOUDY    62  48  60 E6        30.13S
WADENA         CLOUDY    55  48  76 CALM      30.15R
APPLETON       CLOUDY    63  48  59 E8        30.11S
BENSON         CLOUDY    61  46  59 SE5       30.13S
ORTONVILLE     CLOUDY    63  48  59 E8        30.11S
MADISON        CLOUDY    63  46  55 E9        30.10F
WILLMAR        FAIR      61  48  63 E10       30.14F
$$
MNZ033>034-036-042>043-049>051-058-059-240500-
   Central Minnesota

CITY           SKY/WX    TMP DP  RH WIND       PRES   REMARKS
ST CLOUD       CLOUDY    62  47  57 E3        30.15R
SAUK CENTRE    CLOUDY    60  47  63 E3        30.15R
PAYNESVILLE    CLOUDY    57  46  64 CALM      30.15R
AITKIN         PTCLDY    50  45  81 CALM      30.15S
PINE RIVER     PTCLDY    54  46  76 CALM      30.18S
BRAINERD       CLOUDY    57  48  72 CALM      30.16S
STAPLES        CLOUDY    59  46  63 CALM      30.16R
LONG PRAIRIE   CLOUDY    59  46  63 CALM      30.16R
LITTLE FALLS   CLOUDY    59  46  63 CALM      30.16R
LITCHFIELD     CLOUDY    57  54  88 E5        30.15S
BUFFALO        CLOUDY    58  49  73 CALM      30.16R
MAPLE LAKE     CLOUDY    60  51  71 CALM      30.16R
$$
MNZ037-044-045-052-053-240500-
   East Central Minnesota

CITY           SKY/WX    TMP DP  RH WIND       PRES   REMARKS
PRINCETON      CLOUDY    63  48  59 CALM      30.16R
MORA           MOCLDY    57  46  67 CALM      30.17S
CAMBRIDGE      CLOUDY    64  48  55 CALM      30.14R
RUSH CITY      CLOUDY    61  48  62 CALM      30.15F
MOOSE LAKE     PTCLDY    50  45  81 SW3       30.15S
HINCKLEY       CLOUDY    54  50  87 CALM      30.16S
CLOQUET        CLEAR     55  41  58 W3        30.16S
MCGREGOR       MOCLDY    54  46  76 CALM      30.16S
$$
MNZ071>073-080-081-089-090-097-098-240500-
   Southwest Minnesota

CITY           SKY/WX    TMP DP  RH WIND       PRES   REMARKS
MONTEVIDEO     CLOUDY    61  48  63 SE9       30.12F
GRANITE FALLS  CLOUDY    61  50  65 E6        30.13S
CANBY          CLOUDY    60  49  66 E7        30.11F
MARSHALL       CLOUDY    61  46  59 E9        30.10S
REDWOOD FALLS  CLOUDY    62  50  64 NE7       30.12R
OLIVIA         CLOUDY    59  45  58 E8        30.13R
PIPESTONE      CLOUDY    63  52  67 E3        30.10S
WINDOM         CLOUDY    63  52  67 CALM      30.12S
WORTHINGTON    CLOUDY    63  50  63 SE5       30.11S
JACKSON        CLOUDY    63  54  72 CALM      30.12S
TRACY          CLOUDY    63  51  65 SE3       30.11S
SLAYTON        CLOUDY    61  48  62 CALM      30.11F
$$
MNZ065>067-074>077-082>085-091>093-240500-
   South Central Minnesota

CITY           SKY/WX    TMP DP  RH WIND       PRES   REMARKS
MANKATO        CLOUDY    63  54  72 E3        30.13R
NEW ULM        CLOUDY    64  52  63 SE3       30.13R
ST JAMES       CLOUDY    64  52  63 CALM      30.13R
FAIRMONT       CLOUDY    64  48  55 SE5       30.11S
GLENCOE        CLOUDY    63  51  64 NE3       30.13S
FARIBAULT      CLOUDY    63  54  72 NE3       30.13S
OWATONNA       CLOUDY    64  48  55 E3        30.13S
WASECA         CLOUDY    63  52  67 N3        30.13F
ALBERT LEA     CLOUDY    64  52  63 CALM      30.12S
$$
MNZ078>079-086>088-094>096-240500-
   Southeast Minnesota

CITY           SKY/WX    TMP DP  RH WIND       PRES   REMARKS
ROCHESTER      CLOUDY    64  47  53 SE3       30.15S
RED WING       MOCLDY    64  45  48 NE3       30.13R
STANTON        CLOUDY    63  48  59 CALM      30.13R
DODGE CENTER   CLOUDY    64  48  55 SE3       30.14S
WINONA         MOCLDY    61  52  72 CALM      30.14S
AUSTIN         CLOUDY    64  50  59 SE3       30.12S
PRESTON        CLOUDY    64  47  54 SE3       30.15S
$$
ABBREVIATIONS USED IN REMARKS
   TC - TEMPERATURES IN CELSIUS
  WCI - WIND CHILL INDEX
   HX - HEAT INDEX
  VSB - VISIBILITY
$$



USA.gov is the U.S. government's official web portal to all federal, state and local government web resources and services.